Flag for Nicaragua Weather past 2 weeks in Managua, Nicaragua

Now
88 °F

Scattered clouds.


Feels Like: 98 °F
Forecast: 77 / 87 °F
Wind: 12 mph from Southeast

Location: Managua A. C. Sandino

Current Time: Jul 29, 2015 at 6:14:30 PM

Latest Report: Jul 29, 2015 at 5:00 PM


Visibility: N/A

Pressure: 29.77 "Hg

Humidity: 66%

Dew point: 75 °F

Location of ManaguaLocation

Historic Weather in Managua — Graph

°F

Managua temperature yesterday

Maximum temperature yesterday: 93 °F (at 2:00 PM)
Minimum temperature yesterday: 79 °F (at 12:00 AM)
Average temperature yesterday: 84 °F

Past Weeks' High & Low Weather Summary

 TemperatureHumidityPressure
High93 °F (Jul 17, 2:00 PM)94% (Jul 18, 4:00 PM)29.95 "Hg (Jul 18, 4:00 PM)
Low73 °F (Jul 22, 4:00 AM)39% (Jul 27, 1:00 PM)29.74 "Hg (Jul 25, 3:00 PM)
Average83 °F72%29.85 "Hg
* Reported Jul 14 4:00 PM — Jul 29 4:00 PM, Managua, Weather by CustomWeather, © 2015

Note: Actual official high and low records may vary slightly from our data, if they occured in-between our weather recording intervals... More about our weather records

Advertising

Managua weather history for previous 24 hours

 ConditionsComfort  
Time TempWeatherWind HumidityBarometerVisibility
4:00 PM
Wed, Jul 29
91 °FScattered clouds.12 mph52%29.77 "HgN/A
3:00 PM93 °FScattered clouds.9 mph47%29.77 "HgN/A
2:00 PM93 °FScattered clouds.18 mph47%29.77 "HgN/A
1:00 PM91 °FScattered clouds.14 mph49%29.80 "HgN/A
12:00 PM90 °FScattered clouds.12 mph55%29.83 "HgN/A
11:00 AM90 °FScattered clouds.14 mph52%29.83 "HgN/A
10:00 AM86 °FScattered clouds.7 mph62%29.86 "HgN/A
9:00 AM84 °FScattered clouds.12 mph66%29.86 "HgN/A
8:00 AM82 °FScattered clouds.9 mph70%29.86 "HgN/A
7:00 AM79 °FScattered clouds.7 mph79%29.83 "HgN/A
6:00 AM75 °FScattered clouds.5 mph89%29.83 "Hg6 mi
5:00 AM77 °FPassing clouds.7 mph83%29.80 "HgN/A
4:00 AM77 °FPassing clouds.7 mph83%29.80 "HgN/A
2:00 AM79 °FPassing clouds.5 mph79%29.83 "HgN/A
12:00 AM79 °FPassing clouds.7 mph79%29.86 "HgN/A
11:00 PM
Tue, Jul 28
81 °FPassing clouds.5 mph74%29.86 "HgN/A
10:00 PM81 °FPassing clouds.9 mph70%29.86 "HgN/A
9:00 PM82 °FPassing clouds.9 mph66%29.83 "HgN/A
8:00 PM82 °FPassing clouds.7 mph66%29.83 "HgN/A
7:00 PM86 °FPassing clouds.7 mph59%29.80 "HgN/A
6:00 PM88 °FPartly sunny.14 mph52%29.77 "Hg6 mi
Weather by CustomWeather, © 2015

See weather overviewHow to use our weather pages